Amarillo, TX

3:59 PM CDT on July 22, 2017 (GMT -0500)
Amarillo International

Weather History for KAMA - February, 2012

Change the Weather History Date:

Thursday, February 2, 2012

  Actual Average Record
Temperature  
Mean Temperature 44 °F 38 °F  
Max Temperature 54 °F 52 °F 78 °F (1934)
Min Temperature 34 °F 24 °F -10 °F (1951)
Degree Days  
Heating Degree Days 21 27  
Month to date heating degree days 38 54  
Since 1 July heating degree days 2406 2639  
Cooling Degree Days 0 0  
Month to date cooling degree days 0 0  
Year to date cooling degree days 0 0  
Moisture  
Dew Point 41 °F    
Average Humidity 73    
Maximum Humidity 96    
Minimum Humidity 50    
Precipitation  
Precipitation 0.22 in 0.02 in 0.36 in (1940)
Month to date precipitation 0.22 0.04  
Year to date precipitation 0.27 0.76  
Snow  
Snow 0.00 in 0.10 in 2.10 in (1982)
Month to date snowfall 0.0 0.3  
Since 1 July snowfall 9.7 11.4  
Snow Depth 0.00 in    
Sea Level Pressure  
Sea Level Pressure 29.91 in    
Wind  
Wind Speed 18 mph (SE)    
Max Wind Speed 32 mph    
Max Gust Speed 38 mph    
Visibility 7 miles    
Events Fog , Rain , Thunderstorm    
T = Trace of Precipitation, MM = Missing Value Source: NWS Daily Summary

Daily Weather History Graph

Daily Weather History Graph

Search for Another Location

Airport or City:

Trip Planner

Search our weather history database for the weather conditions in past years. The results will help you decide how hot, cold, wet, or windy it might be!

Date:

Astronomy

Feb. 02, 2012 Rise Set
Actual Time 7:45 AM CST 6:15 PM CST
Civil Twilight 7:18 AM CST 6:42 PM CST
Nautical Twilight 6:48 AM CST 7:12 PM CST
Astronomical Twilight 6:18 AM CST 7:42 PM CST
Moon 1:33 PM CST (2/2) 3:25 AM CST (2/2)
Length of Visible Light 11h 23m
Length of Day
10h 30m
Waxing Gibbous, 74% of the Moon is Illuminated
Feb 2
Waxing Gibbous
Feb 7
Full
Feb 14
Last Quarter
Feb 21
New
Feb 29
First Quarter

Hourly Weather History & Observations

Time (CST) Temp. Windchill Dew Point Humidity Pressure Visibility Wind Dir Wind Speed Gust Speed Precip Events Conditions
12:53 AM 39.0 °F 32.3 °F 24.1 °F 55% 30.13 in 10.0 mi SE 10.4 mph - N/A   Clear
1:53 AM 37.0 °F 30.4 °F 25.0 °F 62% 30.12 in 10.0 mi SSE 9.2 mph - N/A   Clear
2:53 AM 39.0 °F 32.3 °F 26.1 °F 60% 30.10 in 10.0 mi South 10.4 mph - N/A   Clear
3:53 AM 35.1 °F 27.4 °F 25.0 °F 67% 30.08 in 10.0 mi SE 10.4 mph - N/A   Clear
4:53 AM 37.0 °F 29.8 °F 27.0 °F 67% 30.06 in 10.0 mi SSE 10.4 mph - N/A   Clear
5:53 AM 35.6 °F 27.5 °F 26.6 °F 70% 30.10 in 10.0 mi SE 11.5 mph - N/A   Clear
6:53 AM 36.0 °F 28.0 °F 28.0 °F 73% 30.07 in 10.0 mi SE 11.5 mph - N/A   Clear
7:53 AM 37.0 °F 28.5 °F 28.0 °F 70% 30.06 in 10.0 mi SE 13.8 mph - N/A   Clear
8:53 AM 39.0 °F 29.9 °F 28.9 °F 67% 30.04 in 10.0 mi SE 17.3 mph - N/A   Clear
9:53 AM 43.0 °F 34.8 °F 30.0 °F 60% 30.02 in 10.0 mi SE 18.4 mph - N/A   Clear
10:53 AM 46.0 °F 37.4 °F 30.9 °F 56% 30.01 in 10.0 mi SE 25.3 mph - N/A   Clear
11:53 AM 53.1 °F - 35.1 °F 50% 29.97 in 10.0 mi ESE 26.5 mph 34.5 mph N/A   Clear
12:53 PM 52.0 °F - 37.0 °F 57% 29.90 in 10.0 mi SE 29.9 mph 35.7 mph N/A   Mostly Cloudy
1:25 PM 51.8 °F - 37.4 °F 58% 29.92 in 10.0 mi SE 27.6 mph 33.4 mph N/A   Overcast
1:53 PM 50.0 °F - 39.9 °F 68% 29.87 in 10.0 mi SE 26.5 mph 33.4 mph N/A   Overcast
2:41 PM 48.2 °F - 42.8 °F 82% 29.90 in 10.0 mi SE 20.7 mph 31.1 mph N/A   Overcast
2:53 PM 48.0 °F - 41.0 °F 77% 29.87 in 10.0 mi SE 23.0 mph 31.1 mph N/A   Overcast
3:53 PM 48.0 °F - 42.1 °F 80% 29.86 in 10.0 mi SE 21.9 mph 31.1 mph N/A   Overcast
4:53 PM 50.0 °F - 43.0 °F 77% 29.83 in 10.0 mi SE 19.6 mph 31.1 mph N/A   Overcast
5:53 PM 50.0 °F - 43.0 °F 77% 29.83 in 10.0 mi SE 17.3 mph 25.3 mph N/A   Overcast
6:43 PM 46.4 °F 39.8 °F 44.6 °F 93% 29.84 in 9.0 mi ESE 16.1 mph - N/A   Scattered Clouds
6:53 PM 46.9 °F - 45.0 °F 93% 29.82 in 8.0 mi ESE 18.4 mph - N/A   Partly Cloudy
7:00 PM 48.2 °F - 44.6 °F 87% 29.84 in 8.0 mi ESE 18.4 mph - N/A   Mostly Cloudy
7:13 PM 48.2 °F - 46.4 °F 93% 29.84 in 7.0 mi SE 19.6 mph - N/A   Mostly Cloudy
7:53 PM 50.0 °F - 46.9 °F 89% 29.82 in 8.0 mi SE 19.6 mph 27.6 mph N/A   Overcast
8:10 PM 50.0 °F - 48.2 °F 94% 29.85 in 6.0 mi SE 25.3 mph 31.1 mph N/A   Overcast
8:41 PM 51.8 °F - 50.0 °F 94% 29.85 in 3.0 mi SE 18.4 mph - N/A   Overcast
8:51 PM 51.8 °F - 50.0 °F 94% 29.85 in 2.0 mi SE 19.6 mph - N/A   Overcast
8:53 PM 51.1 °F - 50.0 °F 96% 29.82 in 1.8 mi SE 20.7 mph - N/A   Overcast
9:07 PM 51.8 °F - 51.8 °F 100% 29.85 in 0.8 mi SE 19.6 mph - N/A   Overcast
9:12 PM 51.8 °F - 51.8 °F 100% 29.85 in 0.5 mi SE 18.4 mph - N/A Fog Fog
9:22 PM 51.8 °F - 51.8 °F 100% 29.85 in 1.0 mi SE 17.3 mph - N/A   Overcast
9:30 PM 51.8 °F - 51.8 °F 100% 29.83 in 3.0 mi SE 20.7 mph - N/A   Overcast
9:53 PM 53.1 °F - 52.0 °F 96% 29.76 in 6.0 mi SE 23.0 mph - N/A   Overcast
9:58 PM 53.6 °F - 51.8 °F 94% 29.81 in 4.0 mi SSE 24.2 mph 31.1 mph 0.00 in Rain , Thunderstorm Thunderstorms and Rain
10:26 PM 53.6 °F - 51.8 °F 94% 29.84 in 2.5 mi SSE 11.5 mph - 0.08 in Rain , Thunderstorm Thunderstorms and Rain
10:32 PM 53.6 °F - 51.8 °F 94% 29.85 in 3.0 mi South 10.4 mph - 0.15 in Rain , Thunderstorm Thunderstorms and Rain
10:53 PM 52.0 °F - 50.0 °F 93% 29.80 in 3.0 mi South 18.4 mph 25.3 mph 0.22 in Rain , Thunderstorm Thunderstorms and Rain
11:08 PM 50.0 °F - 44.6 °F 82% 29.84 in 10.0 mi South 18.4 mph 28.8 mph 0.00 in Rain , Thunderstorm Thunderstorms and Rain
11:53 PM 48.9 °F - 45.0 °F 86% 29.80 in 10.0 mi SW 10.4 mph - 0.00 in   Mostly Cloudy